Location: Hains Lake
(37.8540°N, 99.8578°W)
Time: 22:54:00
(UTC+00:00)

deb Explorer IX - Pass Details

Date: 25 April 2021
Orbit: 541 x 1098 km, 38.8° (Epoch: 13 May)

Event Time Altitude Azimuth Distance (km) Brightness Sun altitude
Rises 17:45:28 0° 270° (W) 2,967 ? 63.0°
Reaches altitude 10° 17:48:48 10° 245° (WSW) 2,163 ? 63.3°
Maximum altitude 17:51:22 14° 214° (SW) 1,990 ? 63.5°
Drops below altitude 10° 17:54:06 10° 184° (S) 2,346 ? 63.8°
Sets 17:58:01 0° 161° (SSE) 3,417 ? 64.1°
